THOR ABLESTAR DEB, 262

Orbit data source: Space-Track

THOR ABLESTAR DEB, 262 is space debris in LEO originally from a launch on Thu, 29 Jun 1961 UTC launched from the Air Force Eastern Test Range (AFETR). Debris objects in space refer to the collection of defunct objects orbiting the Earth. Examples of debris include non-operational satellites, rocket bodies, and fragments generated from explosions, collisions, or faulty payload assembly.

Loading next visibility...
Identifier
262, 1961-015CJ
Orbit
LEO
Country
Flag of USUS
Related business
Manufacturer
Unknown
Mission
Spacecraft
Bus & Motor
Unknown
Mass
Unknown
Launch date (UTC)
1961-06-29 (64 years ago)
Launch vehicle
Unknown
Launch site
Air Force Eastern Test Range (AFETR)
Object type
Payload
Rocket body
Debris
Shape & HBR
Unknown shape, 0.2 m
Radar Cross Section
Small (<0.1 m²)

Expand to show TLE details & history
Last TLE update: 11 hours ago

TLE from 11 hours ago
0 THOR ABLESTAR DEB
1 00262U 61015CJ  25308.51403365  .00005443  00000-0  11652-2 0  9991
2 00262  66.4631 327.3578 0069742 248.9890 110.3750 14.57976801325736
Epoch: 2025-11-04T12:20Z
TLE epoch observation values (Epoch: 2025-11-04T12:20:12.507Z)
Latitude
-0.00006°
Longitude
98.30569°
Altitude
719.319 km
Speed
7.487 km/s
True Right ascension
21h 49m 25s
True Declination
0° 00' 00"
Sunlit
Object was in daylight at epoch
Visualization orbit readout
Latitude
Unknown
Longitude
Unknown
Altitude
Unknown
Speed
Unknown
Apparent Right ascension
Unknown
Apparent Declination
Unknown
Sunlit
N/A
Visualization observer readout
Local Sidereal Time
18:54:12
Azimuth
Unknown
Elevation
Unknown
Doppler factor
Unknown
Orbital elements
Apogee altitude
747.447 km
Perigee altitude
648.745 km
Semi-major axis
7,076.233 km
Eccentricity
0.00697
Inclination
66.4631°
RAAN
327.3578°
Arg. of periapsis
248.989°
True anomaly
111.12189°
Mean anomaly
110.375°
Eccentric anomaly
110.74868°
Mean motion
3.6462 °/min
Orbital period
98.73 mins
BSTAR
0.0011652

Documentation

Showing up to 5 results
|